Stations météo

Publicité
Perpignan, France (7747): Température de l'air & dewpoint: 14.08.2018 22:00:00 - 20.08.2018 22:00:00 (CEST)Perpignan, France (7747): Température de l'air 5cm: 14.08.2018 22:00:00 - 20.08.2018 22:00:00 (CEST)Perpignan, France (7747): Température de l'air -20cm & Température de l'air -100cm: 14.08.2018 22:00:00 - 20.08.2018 22:00:00 (CEST)Perpignan, France (7747): Vitesse du vent & gusts: 14.08.2018 22:00:00 - 20.08.2018 22:00:00 (CEST)Perpignan, France (7747): Direction du vent: 14.08.2018 22:00:00 - 20.08.2018 22:00:00 (CEST)Perpignan, France (7747): reduced air pressure: 14.08.2018 22:00:00 - 20.08.2018 22:00:00 (CEST)Perpignan, France (7747): visibility: 14.08.2018 22:00:00 - 20.08.2018 22:00:00 (CEST)Perpignan, France (7747): Quantités de précipitations: 14.08.2018 22:00:00 - 20.08.2018 22:00:00 (CEST)
Date & Time tt [°C] td [°C] tt 5cm [°C] tt -20cm [°C] tt -100cm [°C] ff [km/h] ff [knt] fx [km/h] fx [knt] dd ppp [hPa] vv [km] rr [mm]
20.08.2018 22:00:00 28,4 13,5 27,6 31,3 27,6 25 13 37 20 WNW 1016,5 60 0,0
20.08.2018 21:00:00 29,0 12,8 28,1 31,3 27,6 18 10 45 24 NW 1016,5 60 0,0
20.08.2018 20:00:00 30,5 12,9 30,5 31,3 27,6 27 15 43 23 NW 1016,3 35 0,0
20.08.2018 19:00:00 31,4 12,2 33,0 31,0 27,5 26 14 48 26 NNW 1016,2 54 0,0
20.08.2018 18:00:00 31,9 11,7 35,5 30,7 27,6 23 13 41 22 NNW 1016,0 40 0,0
20.08.2018 17:00:00 32,3 12,0 36,8 30,2 27,6 25 13 46 25 NNW 1016,6 34 0,0
20.08.2018 16:00:00 32,2 11,9 37,0 29,7 27,6 29 16 48 26 NW 1017,0 38 0,0
20.08.2018 15:00:00 32,3 10,9 35,9 29,3 27,6 28 15 49 26 NNW 1017,4 41 0,0
20.08.2018 14:00:00 31,3 11,1 33,5 28,8 27,5 29 16 53 28 NW 1017,7 48 0,0
20.08.2018 13:00:00 31,6 11,4 38,2 28,5 27,6 30 16 58 31 NNW 1018,0 34 0,0
20.08.2018 12:00:00 30,9 11,3 34,9 28,3 27,6 29 16 56 30 NW 1018,2 33 0,0
20.08.2018 11:00:00 29,4 11,4 33,4 28,3 27,6 35 19 55 30 NW 1018,4 35 0,0
20.08.2018 10:00:00 28,3 11,4 30,2 28,4 27,6 32 18 51 28 NW 1018,8 39 0,0
20.08.2018 09:00:00 26,6 11,9 26,0 28,5 27,6 28 15 51 28 WNW 1018,9 39 0,0
20.08.2018 08:00:00 25,0 11,9 23,2 28,7 27,5 24 13 41 22 NW 1018,7 34 0,0
20.08.2018 07:00:00 24,2 11,8 23,2 28,9 27,6 23 13 40 22 NW 1018,4 60 0,0
20.08.2018 06:00:00 24,7 11,6 23,5 29,2 27,6 20 11 37 20 NW 1018,2 60 0,0
20.08.2018 05:00:00 25,0 11,2 23,6 29,4 27,6 16 8 31 17 WNW 1018,4 60 0,0
20.08.2018 04:00:00 25,5 11,3 24,4 29,6 27,6 20 11 37 20 NW 1018,8 60 0,0
20.08.2018 03:00:00 25,9 11,6 24,7 29,8 27,6 24 13 39 21 NW 1019,1 60 0,0
20.08.2018 02:00:00 26,4 12,5 25,5 30,1 27,6 27 15 45 24 NW 1019,2 60 0,0
20.08.2018 01:00:00 26,5 12,9 25,5 30,3 27,6 22 12 45 24 NW 1019,3 60 0,0
20.08.2018 00:00:00 26,9 13,3 26,0 30,6 27,6 28 15 52 28 NW 1019,4 60 0,0
19.08.2018 23:00:00 27,0 13,7 26,3 30,7 27,6 27 15 45 25 NW 1019,1 60 0,0
19.08.2018 22:00:00 27,5 13,4 26,7 30,9 27,6 27 14 42 23 NW 1018,8 60 0,0
19.08.2018 21:00:00 28,1 13,2 27,2 31,0 27,6 23 12 47 26 NW 1018,5 60 0,0
19.08.2018 20:00:00 29,6 12,5 29,4 30,9 27,6 29 16 47 26 NW 1018,3 39 0,0
19.08.2018 19:00:00 30,8 12,2 32,1 30,7 27,6 29 16 48 26 NNW 1018,2 41 0,0
19.08.2018 18:00:00 31,7 12,0 34,5 30,4 27,7 31 17 46 25 N 1018,4 37 0,0
19.08.2018 17:00:00 31,7 12,5 36,5 29,8 27,6 29 16 42 23 NW 1018,6 38 0,0
19.08.2018 16:00:00 32,1 12,3 37,2 29,2 27,6 24 13 45 25 NW 1018,9 20 0,0
19.08.2018 15:00:00 31,5 11,8 37,0 28,7 27,6 26 14 45 24 NW 1019,2 47 0,0
19.08.2018 14:00:00 31,2 12,5 37,4 28,2 27,6 23 13 42 23 NNW 1019,4 20 0,0
19.08.2018 13:00:00 30,6 12,5 38,1 27,8 27,6 26 14 49 26 NNW 1019,6 58 0,0
19.08.2018 12:00:00 30,2 13,0 35,4 27,6 27,6 23 12 43 23 NNW 1020,2 60 0,0
19.08.2018 11:00:00 28,9 12,7 33,1 27,5 27,7 23 13 41 22 NW 1020,4 20 0,0
19.08.2018 10:00:00 27,2 12,8 28,8 27,6 27,7 20 11 40 21 NW 1020,6 44 0,0
19.08.2018 09:00:00 25,5 12,7 25,1 27,7 27,7 29 15 40 22 NW 1020,3 45 0,0
19.08.2018 08:00:00 24,2 12,5 22,9 27,9 27,7 22 12 41 22 NW 1020,1 37 0,0
19.08.2018 07:00:00 23,8 12,4 22,7 28,0 27,7 21 12 39 21 NW 1019,8 60 0,0
19.08.2018 06:00:00 24,1 12,7 23,2 28,2 27,7 26 14 41 22 NW 1019,6 60 0,0
19.08.2018 05:00:00 24,1 12,7 23,0 28,4 27,7 23 13 36 20 NW 1019,8 60 0,0
19.08.2018 04:00:00 24,0 12,9 23,1 28,7 27,7 19 11 35 19 NW 1019,9 60 0,0
19.08.2018 03:00:00 24,2 12,8 23,4 28,9 27,7 22 12 37 20 NW 1019,9 60 0,0
19.08.2018 02:00:00 24,4 12,7 23,7 29,1 27,7 24 13 38 21 NW 1020,2 60 0,0
19.08.2018 01:00:00 24,7 12,9 24,1 29,2 27,7 24 13 42 23 NW 1020,3 60 0,0
19.08.2018 00:00:00 24,6 13,2 24,2 29,5 27,8 29 16 48 26 NW 1020,1 60 0,0
18.08.2018 23:00:00 24,7 13,9 24,0 29,6 27,7 29 16 48 26 NW 1019,8 60 0,0
18.08.2018 22:00:00 24,8 13,7 24,3 29,8 27,8 31 17 45 24 WNW 1019,7 60 0,0
18.08.2018 21:00:00 25,4 13,6 25,0 29,8 27,8 26 14 51 27 NW 1019,5 60 0,0
18.08.2018 20:00:00 26,5 13,6 27,1 29,8 27,8 28 15 44 24 NW 1018,9 35 0,0
18.08.2018 19:00:00 27,8 13,7 29,7 29,5 27,8 23 12 39 21 NW 1018,6 46 0,0
18.08.2018 18:00:00 28,0 13,5 31,9 29,1 27,8 27 15 47 25 NW 1018,4 51 0,0
18.08.2018 17:00:00 28,3 12,6 33,3 28,5 27,9 27 15 43 23 NNW 1018,5 60 0,0
18.08.2018 16:00:00 28,8 12,2 34,0 27,9 27,9 22 12 40 22 NNW 1018,8 60 0,0
18.08.2018 15:00:00 28,8 11,4 33,4 27,3 27,9 23 12 44 24 NNW 1019,0 60 0,0
18.08.2018 14:00:00 28,0 10,7 33,9 26,8 27,9 26 14 46 25 NNW 1019,3 20 0,0
18.08.2018 13:00:00 27,7 11,3 33,5 26,5 27,9 26 14 44 24 NNW 1019,8 47 0,0
18.08.2018 12:00:00 25,9 10,9 30,5 26,3 27,9 29 16 51 28 NW 1020,1 40 0,0
18.08.2018 11:00:00 24,4 11,4 27,8 26,3 27,9 32 17 51 28 NW 1020,4 42 0,0
18.08.2018 10:00:00 23,2 11,6 24,6 26,4 27,9 32 17 51 27 NW 1020,2 48 0,0
18.08.2018 09:00:00 21,3 11,3 20,1 26,6 27,9 30 16 47 25 NW 1020,1 60 0,0
18.08.2018 08:00:00 20,3 10,7 19,6 26,8 27,9 23 13 49 26 NW 1019,8 23 0,0
18.08.2018 07:00:00 20,3 10,7 19,6 27,1 27,9 31 17 61 33 NW 1019,4 60 0,0
18.08.2018 06:00:00 20,0 10,7 19,5 27,3 28,0 37 20 62 33 NW 1019,1 60 0,0
18.08.2018 05:00:00 20,1 11,0 19,5 27,6 27,9 32 18 64 34 NW 1019,2 60 0,0
18.08.2018 04:00:00 20,3 11,0 19,0 27,9 27,9 34 19 64 34 NW 1019,6 60 0,0
18.08.2018 03:00:00 20,1 11,8 16,2 28,2 28,0 38 20 66 36 NW 1019,6 60 0,0
18.08.2018 02:00:00 19,4 13,3 16,1 28,3 27,9 35 19 56 30 NW 1019,8 20 0,8
18.08.2018 01:00:00 21,2 13,1 18,4 28,5 28,0 29 16 49 26 NW 1020,8 41 0,0
18.08.2018 00:00:00 22,1 13,7 20,8 28,7 27,9 32 17 51 28 NW 1019,9 56 0,0
17.08.2018 23:00:00 22,6 14,7 22,1 28,8 27,9 24 13 49 27 WNW 1019,4 60 0,0
17.08.2018 22:00:00 23,5 15,5 23,3 28,9 27,9 30 16 48 26 NW 1018,7 60 0,0
17.08.2018 21:00:00 24,0 15,5 23,8 29,1 28,0 26 14 42 23 NNW 1018,0 60 0,0
17.08.2018 20:00:00 24,8 15,1 25,1 29,1 27,9 22 12 38 21 NW 1017,6 60 0,0
17.08.2018 19:00:00 25,0 15,0 25,6 29,1 28,0 24 13 44 24 NW 1016,9 58 0,0
17.08.2018 18:00:00 25,5 15,5 27,2 29,1 28,0 22 12 40 21 WNW 1017,5 46 0,0
17.08.2018 17:00:00 25,8 15,8 23,7 29,1 28,0 23 12 37 20 W 1017,6 56 0,0
17.08.2018 16:00:00 23,8 16,8 20,9 29,2 27,9 20 11 40 22 W 1018,0 47 0,2
17.08.2018 15:00:00 24,2 15,4 24,2 29,1 28,0 22 12 53 28 WNW 1018,5 39 0,0
17.08.2018 14:00:00 24,8 14,6 25,9 28,9 27,9 26 14 53 29 NW 1017,6 40 0,0
17.08.2018 13:00:00 26,8 15,2 27,3 28,8 27,9 31 17 51 28 NW 1017,1 20 0,0
17.08.2018 12:00:00 24,8 14,9 27,1 28,8 28,0 24 13 39 21 NW 1017,8 29 0,0
17.08.2018 11:00:00 24,7 15,3 23,4 28,9 27,9 28 15 53 29 NW 1017,5 60 0,0
17.08.2018 10:00:00 22,5 15,3 20,2 29,0 27,9 27 15 55 30 NW 1017,2 54 0,0
17.08.2018 09:00:00 23,1 15,2 23,9 29,1 27,9 31 17 56 30 NW 1016,8 40 0,0
17.08.2018 08:00:00 23,2 16,0 23,4 29,3 27,9 30 16 52 28 NW 1016,3 38 0,0
17.08.2018 07:00:00 23,7 17,2 23,2 29,5 27,9 17 9 42 23 NW 1016,0 53 0,0
17.08.2018 06:00:00 23,7 16,7 23,2 29,7 27,9 24 13 39 21 NW 1014,9 60 0,0
17.08.2018 05:00:00 24,4 16,9 23,7 30,0 28,0 24 13 37 20 NW 1014,7 60 0,0
17.08.2018 04:00:00 24,8 18,0 23,9 30,2 28,0 15 8 28 15 W 1015,1 59 0,0
17.08.2018 03:00:00 25,3 18,0 24,3 30,4 27,9 12 6 28 15 WNW 1015,1 58 0,0
17.08.2018 02:00:00 25,9 17,8 21,5 30,7 27,9 14 8 23 12 NW 1014,9 60 0,0
17.08.2018 01:00:00 23,6 17,3 21,4 30,9 27,9 8 4 11 6 SW 1015,3 60 0,0
17.08.2018 00:00:00 23,6 18,5 22,2 31,1 27,9 5 3 7 4 S 1015,1 59 0,0
16.08.2018 23:00:00 23,9 17,6 22,3 31,4 27,9 0 0 5 3 N 1014,9 60 0,0
16.08.2018 22:00:00 24,3 17,8 22,7 31,6 28,0 3 2 5 3 NNE 1014,9 60 0,0
16.08.2018 21:00:00 24,7 17,9 23,6 31,7 28,0 2 1 6 3 NE 1014,3 60 0,0
16.08.2018 20:00:00 25,2 17,9 26,0 31,7 28,0 5 3 11 6 NE 1014,2 60 0,0
16.08.2018 19:00:00 26,3 17,6 27,7 31,5 28,0 10 6 19 10 E 1014,1 60 0,0
16.08.2018 18:00:00 28,2 16,1 31,6 31,1 28,0 13 7 25 13 SE 1014,0 20 0,0
16.08.2018 17:00:00 29,3 15,8 34,3 30,5 27,9 13 7 23 12 ESE 1014,2 56 0,0
16.08.2018 16:00:00 29,6 15,7 36,0 29,9 28,0 13 7 25 13 ESE 1014,6 20 0,0
16.08.2018 15:00:00 29,4 15,5 35,0 29,3 28,0 15 8 29 15 E 1015,1 60 0,0
16.08.2018 14:00:00 29,8 14,7 36,7 28,8 28,0 17 9 28 15 E 1015,2 60 0,0
16.08.2018 13:00:00 29,4 14,4 36,9 28,4 28,0 13 7 23 12 E 1015,6 20 0,0
16.08.2018 12:00:00 29,1 14,5 35,6 28,2 28,0 11 6 23 13 ESE 1016,1 60 0,0
16.08.2018 11:00:00 28,4 13,9 35,4 28,1 28,0 10 6 24 13 ESE 1016,1 60 0,0
16.08.2018 10:00:00 27,4 14,1 31,3 28,2 28,0 2 1 8 4 ESE 1015,9 44 0,0
16.08.2018 09:00:00 23,8 14,5 23,1 28,4 28,0 0 0 5 3 N 1016,1 60 0,0
16.08.2018 08:00:00 20,1 13,8 16,8 28,7 28,0 2 1 9 5 WSW 1016,0 60 0,0
16.08.2018 07:00:00 18,2 13,3 16,3 28,9 28,0 7 4 9 5 W 1015,8 60 0,0
16.08.2018 06:00:00 18,9 13,3 16,8 29,2 28,0 6 4 9 5 WSW 1015,8 60 0,0
16.08.2018 05:00:00 19,4 13,6 17,0 29,5 28,0 7 4 9 5 WSW 1015,9 60 0,0
16.08.2018 04:00:00 19,7 14,3 17,7 29,8 28,0 6 3 10 5 W 1016,1 60 0,0
16.08.2018 03:00:00 20,7 14,3 18,0 30,0 28,0 4 2 13 7 SSE 1016,2 60 0,0
16.08.2018 02:00:00 21,4 14,5 18,5 30,4 28,0 6 4 8 5 W 1016,5 60 0,0
16.08.2018 01:00:00 23,0 14,3 19,4 30,6 28,0 3 2 14 7 S 1016,6 60 0,0
16.08.2018 00:00:00 24,1 13,9 21,6 30,9 28,0 11 6 16 8 W 1016,6 60 0,0
15.08.2018 23:00:00 24,3 13,2 21,4 31,2 28,1 6 4 19 10 WSW 1016,5 60 0,0
15.08.2018 22:00:00 26,1 12,5 24,6 31,3 28,0 11 6 18 10 WNW 1016,4 60 0,0
15.08.2018 21:00:00 27,1 11,9 25,3 31,4 28,0 13 7 24 13 WNW 1015,9 60 0,0
15.08.2018 20:00:00 29,8 11,3 29,5 31,3 28,0 13 7 26 14 WNW 1015,8 54 0,0
15.08.2018 19:00:00 30,7 11,6 33,3 31,1 28,0 19 10 27 14 NW 1015,8 60 0,0
15.08.2018 18:00:00 31,6 10,3 36,5 30,6 28,0 16 8 33 18 N 1016,0 20 0,0
15.08.2018 17:00:00 31,2 11,6 36,9 30,1 28,1 16 9 34 18 N 1016,4 54 0,0
15.08.2018 16:00:00 31,2 11,1 37,3 29,5 28,1 25 13 39 21 N 1016,7 53 0,0
15.08.2018 15:00:00 30,6 12,0 35,7 28,8 28,1 19 10 37 20 N 1017,1 52 0,0
15.08.2018 14:00:00 29,7 11,7 36,3 28,3 28,1 25 13 46 25 N 1017,5 53 0,0
15.08.2018 13:00:00 28,9 11,5 34,6 27,9 28,1 24 13 41 22 NNW 1017,9 59 0,0
15.08.2018 12:00:00 27,7 11,3 34,1 27,7 28,1 26 14 44 24 NNW 1018,4 60 0,0
15.08.2018 11:00:00 26,6 11,9 30,8 27,6 28,1 22 12 49 26 NNW 1018,7 60 0,0
15.08.2018 10:00:00 25,2 12,8 28,0 27,7 28,1 24 13 41 22 NW 1018,9 60 0,0
15.08.2018 09:00:00 23,8 13,6 23,3 27,8 28,1 22 12 39 21 NW 1019,2 60 0,0
15.08.2018 08:00:00 22,5 14,1 21,0 28,0 28,1 22 12 36 19 NW 1019,3 51 0,0
15.08.2018 07:00:00 21,7 14,1 20,6 28,2 28,1 25 14 38 20 WNW 1019,0 60 0,0
15.08.2018 06:00:00 21,7 13,6 20,7 28,5 28,1 14 8 30 16 NW 1019,2 60 0,0
15.08.2018 05:00:00 22,2 13,5 21,2 28,7 28,1 18 10 34 19 NW 1019,1 60 0,0
15.08.2018 04:00:00 22,6 13,4 21,6 29,0 28,1 17 9 41 22 NW 1019,0 60 0,0
15.08.2018 03:00:00 23,0 13,5 22,2 29,2 28,2 29 16 55 30 NW 1018,8 60 0,0
15.08.2018 02:00:00 23,3 13,5 22,6 29,5 28,1 31 17 52 28 NW 1019,0 60 0,0
15.08.2018 01:00:00 23,4 13,3 22,4 29,8 28,2 27 14 50 27 NW 1019,2 60 0,0
15.08.2018 00:00:00 23,3 13,5 22,5 30,0 28,1 23 13 47 26 NW 1018,9 60 0,0
14.08.2018 23:00:00 23,4 13,6 22,7 30,3 28,2 26 14 49 26 NW 1018,8 60 0,0
14.08.2018 22:00:00 23,9 13,4 23,2 30,6 28,2 25 14 52 28 NW 1018,8 60 0,0

tt = Température de l'air
td = dewpoint
tt 5cm = Température de l'air 5cm
tt -20cm = Température de l'air -20cm
tt -100cm = Température de l'air -100cm
ff = Vitesse du vent
fx = gusts
dd = Direction du vent
ppp = reduced air pressure
vv = visibility
rr = Quantités de précipitations

stations d'obs. à proximité